GFSFLT2_500_spd_162.txt.gz
Wind_Speed
21 23 23 24 25 27 30 29 28 28 27 22 17 14 13 14 16 18 21 23 25 28 32 35 39 40 43
26 26 25 25 27 29 28 29 31 30 28 27 25 24 22 22 23 24 25 26 26 27 29 31 33 36 38
33 33 33 32 33 34 33 31 30 30 31 30 29 28 27 27 29 30 31 33 33 34 35 36 36 36 36
39 39 40 41 40 39 39 39 37 34 32 32 33 33 33 33 32 32 33 35 36 37 38 40 41 41 42
45 45 47 46 46 45 44 43 43 41 38 36 35 35 37 36 35 36 37 37 38 39 40 42 43 43 44
51 51 51 52 50 49 49 48 45 45 44 43 41 41 39 40 41 38 38 39 40 42 43 44 44 45 45
56 57 56 55 55 53 54 53 52 50 49 47 47 46 45 43 43 43 41 40 42 43 45 46 46 47 46
61 60 59 59 58 57 57 56 57 55 54 53 50 49 49 49 48 48 46 42 42 44 45 46 46 47 47
64 64 63 62 61 60 60 60 59 59 57 56 55 52 50 51 51 52 49 45 44 43 43 44 46 46 47
63 64 65 65 65 64 62 61 59 59 58 57 56 56 53 52 53 53 53 48 44 43 45 46 46 47 48
65 65 65 65 66 66 64 64 62 61 57 56 55 56 54 56 54 55 52 46 43 44 45 47 47 47 47
64 63 63 64 64 56 58 63 66 65 57 55 55 55 54 57 56 53 47 43 41 43 45 46 45 46 45
62 57 61 63 58 57 54 54 55 59 59 58 53 53 58 53 48 47 44 41 40 42 44 45 44 43 43
57 63 57 53 50 52 51 50 51 53 53 55 49 47 45 45 44 43 39 39 40 42 44 45 44 42 42
51 54 55 54 50 50 46 44 44 45 44 44 42 43 42 42 38 37 37 38 39 41 41 42 43 41 39
50 52 52 48 52 45 39 36 38 38 36 36 37 38 38 36 35 36 35 36 37 38 38 39 41 39 34
44 42 44 45 46 40 37 34 35 34 33 32 35 37 32 32 33 34 34 35 35 36 37 36 35 32 28

GFSFLT2_500_spd_165.txt.gz
Wind_Speed
29 28 27 27 27 27 28 29 28 29 30 28 26 22 21 18 17 16 16 17 19 21 23 25 26 28 29
33 33 32 32 33 33 33 33 34 33 31 31 29 27 25 24 24 23 23 24 25 26 27 28 29 30 31
37 38 39 38 38 38 38 38 37 35 34 34 33 34 33 30 27 26 28 29 29 30 32 33 34 35 36
41 42 42 42 42 43 44 43 42 42 41 40 39 36 35 35 35 34 31 30 32 34 34 34 35 36 38
48 48 49 49 49 49 49 49 49 48 46 46 45 43 42 40 40 39 40 38 36 34 36 39 39 39 40
54 55 55 55 56 55 55 54 54 53 52 52 51 50 48 47 45 44 43 43 42 40 38 38 41 42 43
60 61 61 61 60 59 58 58 58 57 56 55 54 53 52 52 51 49 49 48 46 47 46 43 43 43 43
61 62 64 64 64 63 62 62 61 60 59 58 58 57 55 53 53 53 50 50 49 48 48 48 47 45 43
62 63 65 66 67 67 66 64 63 61 61 61 60 59 57 56 53 53 52 50 52 50 50 51 50 47 43
67 68 67 68 68 68 68 67 64 62 61 60 60 60 58 57 56 54 53 52 52 54 54 53 51 47 44
73 71 67 65 65 67 65 61 60 60 58 59 61 62 60 59 58 57 56 53 54 55 57 53 51 46 43
69 66 65 62 61 60 58 55 55 55 56 54 55 56 56 56 57 55 53 53 55 57 53 49 45 43 40
63 62 61 61 58 55 51 55 55 49 52 53 53 50 51 49 48 51 51 49 51 49 45 45 42 37 38
58 59 59 57 53 51 52 54 53 52 52 51 45 45 43 42 42 45 44 44 42 41 40 40 36 34 35
55 54 50 45 41 45 48 48 48 49 49 46 42 39 36 35 37 38 40 36 35 37 38 36 33 32 34
42 40 39 37 39 37 36 43 47 46 41 39 36 30 29 32 35 36 33 32 33 36 35 32 34 32 32
35 36 37 38 39 39 39 36 34 38 38 35 32 32 31 31 29 31 31 31 31 34 33 31 33 32 32

GFSFLT2_500_spd_168.txt.gz
Wind_Speed
34 33 34 34 32 33 33 33 33 33 32 33 31 27 23 22 20 20 19 17 16 18 20 21 22 23 24
39 38 38 38 38 39 39 40 40 38 37 34 34 34 34 30 27 24 23 24 24 25 23 24 26 28 28
41 42 42 42 42 42 43 43 43 42 42 41 39 38 37 37 36 34 30 28 27 27 28 30 31 31 31
44 45 47 48 48 49 49 49 49 49 49 48 47 46 45 42 42 42 39 38 36 34 34 32 33 35 37
49 50 51 52 53 54 54 55 55 54 54 54 53 53 52 51 49 45 45 45 43 43 40 38 38 37 38
48 50 52 53 56 57 58 58 58 58 59 58 57 57 56 55 54 53 53 52 51 48 47 46 43 44 43
51 52 52 53 54 56 57 58 59 59 60 61 61 60 60 58 56 55 56 56 55 54 52 51 49 48 49
57 57 57 58 59 60 61 62 62 63 63 62 62 62 61 60 59 58 57 56 56 55 54 53 52 51 50
61 62 64 64 66 67 68 68 67 67 67 65 63 63 62 61 60 59 59 58 57 57 56 55 54 53 52
67 69 71 72 73 74 75 73 72 70 66 67 63 63 62 61 59 60 60 60 59 57 56 56 55 54 55
72 74 77 78 76 76 72 68 63 61 60 62 60 60 58 59 59 58 58 58 60 60 59 57 56 55 54
77 78 74 70 69 66 62 61 60 59 59 56 54 57 54 53 55 54 55 52 52 54 55 56 54 52 54
73 68 64 62 59 59 59 59 58 56 54 54 54 52 52 55 49 48 50 45 42 42 42 46 48 49 47
62 61 61 60 58 58 58 57 54 48 43 47 49 49 48 50 49 45 44 41 38 41 43 44 45 43 41
58 58 57 55 53 52 50 46 41 38 39 41 45 46 44 43 41 40 39 38 39 40 35 36 40 39 35
51 48 45 42 41 40 39 39 38 36 38 35 38 38 39 39 37 36 37 36 34 31 31 32 35 36 34
38 37 36 35 36 37 35 36 35 36 37 37 32 33 37 37 35 35 33 30 28 29 30 30 32 35 33

GFSFLT2_500_spd_171.txt.gz
Wind_Speed
36 37 36 34 34 34 34 34 36 37 38 37 36 34 34 34 31 28 24 20 16 13 14 17 17 18 20
40 39 40 40 40 39 40 40 39 41 40 41 40 40 38 37 36 36 36 33 28 24 20 18 19 22 24
43 43 43 44 43 43 43 43 45 46 47 47 46 45 45 44 43 39 38 38 38 34 34 30 27 26 25
43 44 45 46 46 46 46 47 48 48 49 50 49 49 49 49 49 48 47 47 46 42 41 39 37 37 34
42 42 43 44 43 43 44 46 46 47 48 49 49 50 51 51 52 52 51 51 51 49 48 49 47 45 43
40 40 40 42 45 47 48 49 49 51 52 51 52 53 53 54 54 53 54 54 53 53 52 53 54 52 51
47 49 51 54 54 54 55 55 56 55 55 56 57 58 59 60 59 59 59 58 57 56 55 55 56 56 55
58 59 58 58 58 58 58 59 60 61 61 61 63 63 64 63 63 63 63 62 61 59 58 57 57 57 57
58 59 60 60 60 61 62 63 64 65 68 70 71 71 70 67 66 64 63 62 62 62 60 58 58 58 58
58 60 60 61 64 65 67 67 69 71 71 73 72 71 69 65 63 62 61 61 61 60 61 61 60 59 60
60 59 61 63 65 66 68 70 72 70 69 65 63 62 60 58 58 59 58 58 57 57 56 56 57 57 58
61 61 63 64 65 67 68 68 66 64 62 60 58 59 58 56 54 53 52 52 54 52 51 54 55 51 48
60 60 63 64 64 65 63 60 60 60 60 60 58 58 56 52 51 47 48 51 48 50 51 46 46 46 45
58 59 61 61 60 57 57 57 57 56 56 55 53 52 49 44 40 40 45 45 44 43 44 43 42 42 45
58 57 57 55 54 53 53 51 48 46 46 46 45 42 38 38 39 41 42 41 40 39 42 40 41 40 37
55 52 50 49 48 46 44 39 37 39 40 39 37 37 36 37 37 38 39 37 35 35 35 36 35 34 31
47 45 44 41 39 35 33 31 31 31 31 34 37 35 33 34 34 34 34 32 31 33 33 30 30 33 31